[[{"header":{"parameterUnit":"m.s-1","parameterCategory":1,"la1":30.2991,"la2":30.254,"lo1":-89.0895,"lo2":-89.0444,"dy":0.0017,"dx":0.0017,"nx":28,"ny":28,"refTime":"2024-08-07T03:00:00:Z","depth":0,"parameterNumber":2,"parameterNumberName":"U-component_of_WINDS"},"data":[0,0,0,0,0,0,0,0,0,0,0,0,0,0,0,0,0,0,0,0,0,0,0,0,0,0,0,0,0,0,0,0,0,0,0,0,0,0,0,0,0,0,0,0,0,0,0,0,0,0,0,0,0,0,0,0,0,0,1.8732,1.8732,0,1.873,1.8729,1.8729,1.8689,1.8688,1.8687,1.8686,1.8686,1.8687,1.8688,0,0,0,0,0,0,0,0,0,0,0,0,0,1.8705,1.8705,1.8732,1.8732,1.8732,1.873,1.8729,1.8729,1.8689,1.8688,1.8686,1.8685,1.8685,1.8687,1.8688,0,0,0,0,0,0,0,0,0,0,0,0,0,1.8711,1.8706,1.8732,1.8711,1.8709,1.873,1.8729,1.8729,1.8689,1.8688,1.8686,1.8685,1.8685,1.8686,1.8688,1.8729,0,0,1.8692,1.8693,0,0,0,0,0,0,0,0,1.8711,1.8712,1.8714,1.8713,1.871,1.8708,1.872,1.8729,1.869,1.8697,1.8686,1.8684,1.8694,1.8695,1.8698,1.8729,1.8729,1.8693,1.8693,1.8694,1.8694,0,0,0,0,0,0,0,1.871,1.8712,1.8731,1.8714,1.8712,1.8703,1.8702,1.8722,1.8705,1.8696,1.8693,1.8693,1.8693,1.8697,1.8698,1.8729,1.8692,1.8694,1.8695,1.8695,1.8796,1.8798,0,0,0,0,0,0,1.8712,1.8712,1.8731,1.8731,1.8707,1.8705,1.8704,1.871,1.8704,1.8702,1.8695,1.8691,1.8695,1.8696,1.8698,1.8747,1.8694,1.8695,1.8696,1.8794,1.8796,1.8798,0,0,0,0,0,0,1.8712,1.8714,1.8731,1.8721,1.8722,1.8707,1.8714,1.8711,1.8715,1.8703,1.87,1.8701,1.8694,1.8696,1.8722,1.8747,1.8696,1.8697,1.8792,1.8795,1.8797,1.8846,0,0,0,0,0,0,1.8711,1.8714,1.8729,1.8721,1.8723,1.8754,1.8716,1.8712,1.8717,1.8713,1.8709,1.8706,1.8693,1.872,1.8723,1.8748,1.8699,1.879,1.8793,1.8796,1.8842,1.885,1.8856,0,0,0,0,0,1.871,1.8742,1.8729,1.8732,1.874,1.8755,1.8756,1.8739,1.8719,1.8734,1.8727,1.8707,1.8743,1.8723,1.8726,1.8752,1.8788,1.8792,1.8796,1.8838,1.8848,1.8856,0,0,0,0,0,0,1.8753,1.8741,1.8726,1.8756,1.8757,1.8748,1.8767,1.875,1.8757,1.8753,1.8732,1.8732,1.8762,1.8759,1.8737,1.8793,1.8762,1.8767,1.8793,1.8802,1.8809,1.881,1.87,0,0,0,0,0,1.8766,1.8778,1.8767,1.8795,1.8796,1.8782,1.8788,1.8775,1.8775,1.8775,1.877,1.8772,1.8785,1.8793,1.8803,1.8841,1.8841,1.886,1.8868,1.8874,1.8879,1.8902,1.8911,1.8811,1.8811,1.8811,0,0,1.8792,1.8787,1.8796,1.8803,1.8802,1.8818,1.8782,1.8799,1.8811,1.8778,1.8803,1.88,1.8801,1.8834,1.8848,1.8832,1.8906,1.8879,1.8884,1.8886,1.8907,1.8916,1.8925,1.8814,1.8814,1.8813,0,0,1.8849,1.8845,1.8869,1.887,1.8869,1.8859,1.8865,1.886,1.8856,1.8881,1.8858,1.8872,1.8892,1.8895,1.8899,1.896,1.8943,1.8964,1.9003,1.9026,1.9033,1.904,1.9065,1.9073,1.8969,1.8969,1.8969,0,1.8883,1.8903,1.8884,1.8903,1.8908,1.8879,1.8905,1.8906,1.8909,1.8914,1.8897,1.8924,1.8923,1.8957,1.8973,1.8976,1.8984,1.8965,1.9034,1.904,1.9047,1.907,1.9079,1.8972,1.8972,1.8971,1.8971,0,1.8946,1.8961,1.8981,1.8985,1.8992,1.9014,1.9,1.9009,1.8997,1.899,1.9017,1.9014,1.9025,1.9032,1.9019,1.9066,1.9057,1.9037,1.9006,1.9059,1.9081,1.9089,1.8976,1.8975,1.8974,1.8973,0,0,1.9029,1.9023,1.9031,1.9034,1.9032,1.9044,1.9066,1.9076,1.9087,1.909,1.911,1.9129,1.9112,1.9117,1.9104,1.9124,1.9176,1.9102,1.9101,1.9118,1.9231,1.9248,1.9258,1.9164,1.9165,1.9167,1.9232,0,1.9086,1.9122,1.9106,1.9145,1.9161,1.9135,1.9155,1.9157,1.9152,1.9165,1.9159,1.9175,1.9149,1.9152,1.917,1.9166,1.9199,1.916,1.9184,1.9185,1.9187,1.9269,1.9285,1.9347,1.924,1.9241,1.9242,0,1.9156,1.9164,1.9204,1.9202,1.9208,1.9226,1.9236,1.9248,1.9251,1.9246,1.9253,1.9237,1.9261,1.923,1.9264,1.9239,1.9248,1.9248,1.925,1.9252,1.9218,1.9276,1.9366,1.9376,1.9254,1.9253,1.9253,0,1.9216,1.9236,1.9263,1.9266,1.9264,1.9277,1.9277,1.9279,1.9287,1.9296,1.9302,1.9313,1.932,1.9331,1.932,1.9298,1.9357,1.9324,1.9356,1.9357,1.937,1.937,1.9465,1.9373,1.9373,1.9373,1.9373,0,1.9282,1.9309,1.929,1.9307,1.9337,1.932,1.935,1.9347,1.9349,1.9367,1.9345,1.9363,1.9346,1.9363,1.9354,1.9386,1.9388,1.9387,1.9385,1.939,1.9391,1.9397,1.9393,1.9375,1.9375,1.9374,1.9374,0,1.9354,1.9342,1.9371,1.9367,1.9367,1.9389,1.9387,1.9404,1.9397,1.942,1.9425,1.9416,1.9435,1.9424,1.9443,1.9438,1.948,1.947,1.9479,1.9477,1.951,1.9508,1.9614,1.9629,1.9525,1.9526,1.9527,0,1.9398,1.9418,1.9416,1.9426,1.9428,1.9444,1.9452,1.9437,1.9447,1.9454,1.9471,1.9487,1.95,1.9532,1.9528,1.9544,1.9536,1.9572,1.9538,1.9544,1.954,1.954,1.9543,1.958,1.9581,1.9582,1.9583,0,1.9478,1.9472,1.9484,1.9496,1.9507,1.9515,1.9522,1.9532,1.9517,1.953,1.9548,1.9558,1.9579,1.9597,1.9611,1.9613,1.9597,1.9593,1.9602,1.9609,1.9614,1.9614,1.95,1.9591,1.959,1.959,1.9589,1.9589,1.9539,1.9556,1.9559,1.9574,1.9578,1.9585,1.9602,1.9598,1.9613,1.9628,1.9618,1.9642,1.9647,1.9664,1.9669,1.9688,1.9674,1.9685,1.9689,1.9693,1.9699,1.9609,1.969,1.969,1.969,1.9689,1.9689,0,1.962,1.962,1.9635,1.9645,1.9659,1.9641,1.9648,1.9661,1.9681,1.9687,1.9701,1.9724,1.9742,1.9741,1.9758,1.9774,1.9768,1.978,1.9779,1.9781,1.9709,1.9701,1.9785,1.9785,1.9785,1.9785,1.9785,1.9785,1.9664,1.9693,1.9688,1.9721,1.9721,1.9743,1.9749,1.9757,1.9762,1.9789,1.9804,1.9802,1.9806,1.9824,1.9841,1.984,1.9849,1.9865,1.9862,1.9795,1.9785,1.9776,1.9769,1.9866,1.9866,1.9932,1.9933,1.9933]},{"header":{"parameterUnit":"m.s-1","parameterCategory":1,"la1":30.2991,"la2":30.254,"lo1":-89.0895,"lo2":-89.0444,"dy":0.0017,"dx":0.0017,"nx":28,"ny":28,"refTime":"2024-08-07T03:00:00:Z","depth":0,"parameterNumber":3,"parameterNumberName":"V-component_of_WINDS"},"data":[0,0,0,0,0,0,0,0,0,0,0,0,0,0,0,0,0,0,0,0,0,0,0,0,0,0,0,0,0,0,0,0,0,0,0,0,0,0,0,0,0,0,0,0,0,0,0,0,0,0,0,0,0,0,0,0,0,0,-1.6084,-1.6083,0,-1.6009,-1.6008,-1.6007,-1.601,-1.6011,-1.6012,-1.6013,-1.5934,-1.5931,-1.5928,0,0,0,0,0,0,0,0,0,0,0,0,0,-1.6227,-1.6224,-1.6084,-1.6083,-1.6082,-1.6009,-1.6008,-1.6007,-1.601,-1.6011,-1.6012,-1.6013,-1.5935,-1.5931,-1.5928,0,0,0,0,0,0,0,0,0,0,0,0,0,-1.616,-1.6223,-1.6084,-1.6074,-1.6073,-1.6009,-1.6008,-1.6007,-1.6009,-1.6011,-1.6013,-1.6014,-1.5936,-1.5932,-1.5927,-1.5867,0,0,-1.5913,-1.5911,0,0,0,0,0,0,0,0,-1.6163,-1.6154,-1.6077,-1.6075,-1.6073,-1.602,-1.6029,-1.596,-1.6009,-1.6033,-1.6013,-1.6015,-1.5961,-1.5955,-1.5937,-1.5863,-1.586,-1.5913,-1.591,-1.5908,-1.5907,0,0,0,0,0,0,0,-1.6168,-1.6158,-1.6054,-1.6076,-1.6073,-1.6073,-1.6066,-1.6016,-1.5989,-1.6031,-1.6031,-1.6023,-1.5961,-1.5942,-1.5935,-1.5859,-1.5913,-1.5909,-1.5906,-1.5904,-1.5732,-1.573,0,0,0,0,0,0,-1.6175,-1.6161,-1.6056,-1.6052,-1.6123,-1.6069,-1.6061,-1.6036,-1.599,-1.5984,-1.6021,-1.6023,-1.5949,-1.5941,-1.5933,-1.5858,-1.5908,-1.5904,-1.5901,-1.5734,-1.5731,-1.5729,0,0,0,0,0,0,-1.6178,-1.6166,-1.6059,-1.6107,-1.6093,-1.6065,-1.6037,-1.6033,-1.6014,-1.5982,-1.5977,-1.6007,-1.595,-1.5939,-1.5883,-1.5855,-1.5901,-1.5897,-1.5736,-1.5733,-1.573,-1.5709,0,0,0,0,0,0,-1.6182,-1.6167,-1.6144,-1.6106,-1.6091,-1.6012,-1.6035,-1.6031,-1.6007,-1.6008,-1.5968,-1.5962,-1.595,-1.589,-1.5879,-1.585,-1.5894,-1.5738,-1.5734,-1.5731,-1.5712,-1.5706,-1.5701,0,0,0,0,0,-1.6187,-1.6141,-1.6143,-1.613,-1.6061,-1.601,-1.6001,-1.5989,-1.6004,-1.5981,-1.596,-1.5964,-1.5861,-1.5885,-1.5872,-1.5841,-1.574,-1.5735,-1.5731,-1.5715,-1.5708,-1.5701,0,0,0,0,0,0,-1.6174,-1.6135,-1.6137,-1.6077,-1.6047,-1.6011,-1.598,-1.5981,-1.5945,-1.5948,-1.5934,-1.5925,-1.5868,-1.585,-1.5876,-1.578,-1.5802,-1.5795,-1.5794,-1.5787,-1.5781,-1.5786,-1.589,0,0,0,0,0,-1.6165,-1.6127,-1.6095,-1.6045,-1.603,-1.6008,-1.5985,-1.5978,-1.5946,-1.5933,-1.5909,-1.5877,-1.5837,-1.5812,-1.5774,-1.5711,-1.5701,-1.5684,-1.5678,-1.5673,-1.5667,-1.5631,-1.5622,-1.5716,-1.5716,-1.5716,0,0,-1.6144,-1.6118,-1.6095,-1.6042,-1.6018,-1.5978,-1.5997,-1.5954,-1.5924,-1.5926,-1.5872,-1.5853,-1.5817,-1.5757,-1.573,-1.574,-1.5639,-1.5668,-1.5665,-1.566,-1.5626,-1.5617,-1.5609,-1.5713,-1.5714,-1.5714,0,0,-1.6085,-1.6063,-1.6018,-1.5994,-1.5958,-1.5944,-1.5933,-1.5897,-1.5885,-1.5831,-1.5831,-1.5796,-1.5728,-1.5702,-1.568,-1.5613,-1.5614,-1.5601,-1.5571,-1.5536,-1.5529,-1.5522,-1.5496,-1.5488,-1.5596,-1.5596,-1.5595,0,-1.6063,-1.6004,-1.5995,-1.5952,-1.5928,-1.593,-1.5884,-1.5861,-1.5814,-1.5797,-1.5809,-1.5725,-1.5701,-1.5634,-1.5618,-1.5601,-1.5587,-1.5604,-1.5531,-1.5524,-1.5518,-1.5493,-1.5484,-1.5594,-1.5594,-1.5594,-1.5594,0,-1.5979,-1.5938,-1.5906,-1.5861,-1.5834,-1.579,-1.5773,-1.5747,-1.5743,-1.5728,-1.5672,-1.5644,-1.56,-1.5584,-1.558,-1.5517,-1.5524,-1.5534,-1.5555,-1.5507,-1.5484,-1.5474,-1.5592,-1.5592,-1.5593,-1.5593,0,0,-1.5907,-1.5859,-1.5847,-1.5827,-1.5788,-1.5756,-1.5712,-1.567,-1.5647,-1.5615,-1.5577,-1.5521,-1.553,-1.5505,-1.5498,-1.5468,-1.5415,-1.5481,-1.548,-1.5468,-1.5342,-1.5333,-1.5322,-1.5417,-1.5415,-1.5414,-1.5345,0,-1.5842,-1.5765,-1.5755,-1.5686,-1.5648,-1.565,-1.5611,-1.5583,-1.5568,-1.5533,-1.5516,-1.5476,-1.5492,-1.5477,-1.5447,-1.5428,-1.5389,-1.5433,-1.5379,-1.5377,-1.5385,-1.531,-1.53,-1.5236,-1.5336,-1.5334,-1.5333,0,-1.5756,-1.5722,-1.5649,-1.5616,-1.56,-1.5565,-1.5526,-1.5493,-1.5461,-1.5452,-1.5425,-1.5422,-1.5376,-1.5402,-1.5337,-1.5367,-1.5345,-1.5333,-1.533,-1.5322,-1.535,-1.5298,-1.5216,-1.5205,-1.5319,-1.532,-1.5321,0,-1.5708,-1.5645,-1.5593,-1.5576,-1.5536,-1.5512,-1.5494,-1.5464,-1.5439,-1.5405,-1.5389,-1.535,-1.5328,-1.5297,-1.5284,-1.5304,-1.522,-1.5244,-1.5209,-1.521,-1.5189,-1.519,-1.5099,-1.5179,-1.518,-1.518,-1.518,0,-1.5635,-1.559,-1.5571,-1.5539,-1.5488,-1.5478,-1.5428,-1.5411,-1.5385,-1.5348,-1.5349,-1.5315,-1.53,-1.5264,-1.5254,-1.5201,-1.5192,-1.5182,-1.5179,-1.518,-1.5181,-1.5163,-1.5166,-1.5177,-1.5178,-1.5178,-1.5179,0,-1.5572,-1.5558,-1.5501,-1.5469,-1.546,-1.5423,-1.5395,-1.5364,-1.535,-1.5305,-1.5293,-1.5271,-1.5229,-1.5213,-1.5161,-1.5154,-1.5092,-1.5095,-1.5103,-1.5102,-1.5067,-1.5069,-1.4959,-1.4944,-1.5037,-1.5036,-1.5035,0,-1.5525,-1.549,-1.5455,-1.5431,-1.5413,-1.5375,-1.535,-1.534,-1.5314,-1.5275,-1.5248,-1.5206,-1.5171,-1.5103,-1.5081,-1.5042,-1.5041,-1.5006,-1.5035,-1.5037,-1.5038,-1.5039,-1.5034,-1.4999,-1.4998,-1.4997,-1.4997,0,-1.5442,-1.5438,-1.5402,-1.5364,-1.5335,-1.5305,-1.5275,-1.5256,-1.5241,-1.5212,-1.5168,-1.5142,-1.5089,-1.5046,-1.5006,-1.4987,-1.4988,-1.4988,-1.4978,-1.4977,-1.4982,-1.4976,-1.5085,-1.499,-1.4991,-1.4991,-1.4991,-1.4992,-1.5384,-1.5353,-1.5323,-1.5284,-1.5261,-1.5234,-1.5202,-1.5186,-1.515,-1.5106,-1.5103,-1.5056,-1.5025,-1.4971,-1.495,-1.4913,-1.4922,-1.4907,-1.4903,-1.4899,-1.4895,-1.4991,-1.4906,-1.4906,-1.4906,-1.4906,-1.4906,0,-1.5299,-1.5281,-1.5245,-1.5204,-1.5173,-1.518,-1.5148,-1.5121,-1.508,-1.5052,-1.5018,-1.4968,-1.4927,-1.4904,-1.4863,-1.4838,-1.4837,-1.4827,-1.4827,-1.4822,-1.489,-1.4902,-1.4828,-1.4828,-1.4828,-1.4828,-1.4828,-1.4828,-1.5251,-1.5199,-1.5191,-1.5127,-1.5109,-1.5063,-1.5044,-1.5019,-1.4996,-1.494,-1.4907,-1.4893,-1.4866,-1.4823,-1.4786,-1.478,-1.4764,-1.4752,-1.4747,-1.481,-1.4818,-1.4825,-1.4836,-1.4749,-1.4749,-1.4682,-1.4681,-1.4681]}]]